When you browse on this site, cookies collect data to enhance your experience and personalize the content and advertising you see.
Visit our Privacy Policy to learn more. By continuing to use the site, you agree to this use of cookies and data.
  • In Portugal
  • List of Countries
  • For 7 days
  • Water Temperature
  • Satellite Maps
  • Weather Map
  • Weather Widgets
  • user-avatar
    Login

    Hourly Weather Madinat 'Isa

    Today, 21 May, Tuesday

    Time Temperature Precipitation Wind Pressure Humidity
    00:00 +32°C° 0 mm 1 mps 755 mmHg 48%
    01:00 +32°C° 0 mm 1 mps 755 mmHg 48%
    02:00 +31°C° 0 mm 1 mps 755 mmHg 48%
    03:00 +31°C° 0 mm 2 mps 755 mmHg 49%
    04:00 +31°C° 0 mm 2 mps 755 mmHg 49%
    05:00 +31°C° 0 mm 1 mps 756 mmHg 48%
    06:00 +30°C° 0 mm 0 mps 756 mmHg 48%
    07:00 +30°C° 0 mm 0 mps 756 mmHg 45%
    08:00 +33°C° 0 mm 1 mps 757 mmHg 43%
    09:00 +35°C° 0 mm 3 mps 757 mmHg 45%
    10:00 +35°C° 0 mm 3 mps 757 mmHg 44%
    11:00 +36°C° 0 mm 2 mps 757 mmHg 42%
    12:00 +36°C° 0 mm 2 mps 757 mmHg 41%
    13:00 +37°C° 0 mm 2 mps 757 mmHg 39%
    14:00 +37°C° 0 mm 2 mps 756 mmHg 38%
    15:00 +37°C° 0 mm 1 mps 756 mmHg 35%
    16:00 +37°C° 0 mm 2 mps 756 mmHg 35%
    17:00 +37°C° 0 mm 2 mps 756 mmHg 34%
    18:00 +37°C° 0 mm 2 mps 756 mmHg 34%
    19:00 +37°C° 0 mm 2 mps 756 mmHg 35%
    20:00 +36°C° 0 mm 3 mps 756 mmHg 36%
    21:00 +35°C° 0 mm 3 mps 756 mmHg 37%
    22:00 +35°C° 0 mm 2 mps 756 mmHg 38%
    23:00 +35°C° 0 mm 2 mps 756 mmHg 38%

    Tomorrow, 22 May, Wednesday

    Time Temperature Precipitation Wind Pressure Humidity
    00:00 +33°C° 0 mm 1 mps 756 mmHg 39%
    01:00 +34°C° 0 mm 2 mps 756 mmHg 38%
    02:00 +34°C° 0 mm 2 mps 756 mmHg 38%
    03:00 +34°C° 0 mm 3 mps 756 mmHg 38%
    04:00 +34°C° 0 mm 3 mps 756 mmHg 37%
    05:00 +34°C° 0 mm 4 mps 756 mmHg 36%
    06:00 +35°C° 0 mm 4 mps 756 mmHg 35%
    07:00 +36°C° 0 mm 4 mps 756 mmHg 33%
    08:00 +37°C° 0 mm 4 mps 757 mmHg 31%
    09:00 +40°C° 0 mm 4 mps 757 mmHg 28%
    10:00 +40°C° 0 mm 4 mps 757 mmHg 27%
    11:00 +41°C° 0 mm 4 mps 756 mmHg 26%
    12:00 +41°C° 0 mm 4 mps 756 mmHg 24%
    13:00 +41°C° 0 mm 5 mps 756 mmHg 25%
    14:00 +40°C° 0 mm 5 mps 756 mmHg 26%
    15:00 +40°C° 0 mm 5 mps 755 mmHg 27%
    16:00 +39°C° 0 mm 5 mps 755 mmHg 28%
    17:00 +37°C° 0 mm 5 mps 755 mmHg 30%
    18:00 +36°C° 0 mm 5 mps 755 mmHg 31%
    19:00 +35°C° 0 mm 4 mps 755 mmHg 33%
    20:00 +35°C° 0 mm 2 mps 755 mmHg 35%
    21:00 +33°C° 0 mm 1 mps 755 mmHg 36%
    22:00 +33°C° 0 mm 1 mps 755 mmHg 35%
    23:00 +34°C° 0 mm 2 mps 755 mmHg 33%

    Day after tomorrow, 23 May, Thursday

    Time Temperature Precipitation Wind Pressure Humidity
    00:00 +34°C° 0 mm 3 mps 755 mmHg 31%
    01:00 +34°C° 0 mm 3 mps 755 mmHg 30%
    02:00 +34°C° 0 mm 4 mps 754 mmHg 29%
    03:00 +34°C° 0 mm 4 mps 754 mmHg 27%
    04:00 +34°C° 0 mm 5 mps 754 mmHg 27%
    05:00 +34°C° 0 mm 5 mps 754 mmHg 27%
    06:00 +34°C° 0 mm 5 mps 754 mmHg 27%
    07:00 +36°C° 0 mm 5 mps 755 mmHg 24%
    08:00 +37°C° 0 mm 5 mps 755 mmHg 21%
    09:00 +40°C° 0 mm 5 mps 755 mmHg 18%
    10:00 +41°C° 0 mm 4 mps 755 mmHg 17%
    11:00 +42°C° 0 mm 3 mps 755 mmHg 16%
    12:00 +42°C° 0 mm 2 mps 755 mmHg 14%
    13:00 +43°C° 0 mm 3 mps 754 mmHg 15%
    14:00 +42°C° 0 mm 4 mps 754 mmHg 15%
    15:00 +42°C° 0 mm 5 mps 753 mmHg 16%
    16:00 +41°C° 0 mm 5 mps 753 mmHg 21%
    17:00 +39°C° 0 mm 5 mps 753 mmHg 26%
    18:00 +36°C° 0 mm 5 mps 753 mmHg 31%
    19:00 +36°C° 0 mm 4 mps 754 mmHg 32%
    20:00 +35°C° 0 mm 3 mps 754 mmHg 33%
    21:00 +35°C° 0 mm 2 mps 755 mmHg 35%
    22:00 +35°C° 0 mm 2 mps 755 mmHg 33%
    23:00 +34°C° 0 mm 2 mps 755 mmHg 32%

    24 May, Friday

    Time Temperature Precipitation Wind Pressure Humidity
    00:00 +33°C° 0 mm 1 mps 754 mmHg 31%
    01:00 +34°C° 0 mm 2 mps 754 mmHg 30%
    02:00 +34°C° 0 mm 3 mps 754 mmHg 28%
    03:00 +34°C° 0 mm 3 mps 754 mmHg 27%
    04:00 +35°C° 0 mm 3 mps 754 mmHg 27%
    05:00 +35°C° 0 mm 3 mps 754 mmHg 27%
    06:00 +35°C° 0 mm 3 mps 755 mmHg 28%
    07:00 +36°C° 0 mm 3 mps 755 mmHg 25%
    08:00 +37°C° 0 mm 2 mps 755 mmHg 22%
    09:00 +39°C° 0 mm 2 mps 756 mmHg 20%
    10:00 +40°C° 0 mm 2 mps 756 mmHg 18%
    11:00 +41°C° 0 mm 2 mps 755 mmHg 17%
    12:00 +41°C° 0 mm 2 mps 755 mmHg 16%
    13:00 +42°C° 0 mm 3 mps 755 mmHg 17%
    14:00 +42°C° 0 mm 4 mps 754 mmHg 18%
    15:00 +42°C° 0 mm 5 mps 754 mmHg 20%
    16:00 +40°C° 0 mm 5 mps 754 mmHg 22%
    17:00 +38°C° 0 mm 4 mps 754 mmHg 25%
    18:00 +37°C° 0 mm 3 mps 754 mmHg 28%
    19:00 +37°C° 0 mm 3 mps 754 mmHg 27%
    20:00 +37°C° 0 mm 3 mps 755 mmHg 27%
    21:00 +36°C° 0 mm 2 mps 755 mmHg 27%
    22:00 +36°C° 0 mm 3 mps 755 mmHg 28%
    23:00 +36°C° 0 mm 3 mps 755 mmHg 30%

    25 May, Saturday

    Time Temperature Precipitation Wind Pressure Humidity
    00:00 +35°C° 0 mm 3 mps 754 mmHg 31%
    01:00 +35°C° 0 mm 3 mps 754 mmHg 33%
    02:00 +34°C° 0 mm 2 mps 754 mmHg 34%
    03:00 +32°C° 0 mm 2 mps 754 mmHg 36%
    04:00 +34°C° 0 mm 2 mps 754 mmHg 34%
    05:00 +34°C° 0 mm 2 mps 754 mmHg 32%
    06:00 +35°C° 0 mm 2 mps 755 mmHg 30%
    07:00 +36°C° 0 mm 3 mps 755 mmHg 28%
    08:00 +37°C° 0 mm 3 mps 755 mmHg 25%
    09:00 +38°C° 0 mm 3 mps 755 mmHg 23%
    10:00 +38°C° 0 mm 3 mps 755 mmHg 22%
    11:00 +39°C° 0 mm 2 mps 755 mmHg 21%
    12:00 +40°C° 0 mm 2 mps 754 mmHg 20%
    13:00 +40°C° 0 mm 3 mps 754 mmHg 20%
    14:00 +40°C° 0 mm 3 mps 754 mmHg 20%
    15:00 +41°C° 0 mm 4 mps 753 mmHg 20%
    16:00 +40°C° 0 mm 4 mps 753 mmHg 24%
    17:00 +39°C° 0 mm 5 mps 753 mmHg 28%
    18:00 +36°C° 0 mm 5 mps 753 mmHg 32%
    19:00 +36°C° 0 mm 4 mps 753 mmHg 33%
    20:00 +35°C° 0 mm 4 mps 754 mmHg 33%
    21:00 +35°C° 0 mm 3 mps 754 mmHg 34%
    22:00 +35°C° 0 mm 3 mps 754 mmHg 33%
    23:00 +34°C° 0 mm 3 mps 753 mmHg 33%

    26 May, Sunday

    Time Temperature Precipitation Wind Pressure Humidity
    00:00 +34°C° 0 mm 2 mps 753 mmHg 33%
    01:00 +34°C° 0 mm 2 mps 753 mmHg 33%
    02:00 +32°C° 0 mm 2 mps 753 mmHg 33%
    03:00 +32°C° 0 mm 2 mps 753 mmHg 34%
    04:00 +32°C° 0 mm 1 mps 753 mmHg 33%
    05:00 +32°C° 0 mm 1 mps 753 mmHg 32%
    06:00 +32°C° 0 mm 1 mps 753 mmHg 31%
    07:00 +33°C° 0 mm 1 mps 754 mmHg 29%
    08:00 +34°C° 0 mm 1 mps 754 mmHg 27%
    09:00 +35°C° 0 mm 1 mps 754 mmHg 25%
    10:00 +36°C° 0 mm 1 mps 754 mmHg 24%
    11:00 +37°C° 0 mm 1 mps 754 mmHg 23%
    12:00 +39°C° 0 mm 1 mps 753 mmHg 22%
    13:00 +39°C° 0 mm 2 mps 753 mmHg 21%
    14:00 +39°C° 0 mm 2 mps 753 mmHg 21%
    15:00 +40°C° 0 mm 3 mps 752 mmHg 20%
    16:00 +39°C° 0 mm 3 mps 753 mmHg 22%
    17:00 +38°C° 0 mm 3 mps 753 mmHg 23%
    18:00 +37°C° 0 mm 3 mps 753 mmHg 24%
    19:00 +37°C° 0 mm 2 mps 753 mmHg 24%
    20:00 +37°C° 0 mm 2 mps 753 mmHg 24%
    21:00 +36°C° 0 mm 2 mps 753 mmHg 24%
    22:00 +36°C° 0 mm 2 mps 753 mmHg 24%
    23:00 +36°C° 0 mm 2 mps 753 mmHg 24%
    Show more